Date String (YYYY-MM-DD hh:mm:ss) UTC,Instrument flags,absolute air pressure of the measurement (hPa),sample flow rate (lpm),inlet stack bypass flow (lpm),air temperature of the measurement (°C),ambient temperature measured by the external sensor (°C),aerosol sample conditioner tube jacket temperature (°C),OPC LED temperature (°C),internal box temperature (°C),relative humidity of the measurement (%),span deviation,mass concentration of particles derived from Lorenz-Mie calculation of OPC scattering (μg/m³),mass concentration of particles derived from Lorenz-Mie calculation of OPC scattering (μg/m³),mass concentration of particles derived from Lorenz-Mie calculation of OPC scattering (μg/m³)
DateTimeUTC,F1_M11,P_M11,Q1_M11,Q2_M11,T1_M11,T2_M11,T3_M11,T4_M11,T5_M11,U1_M11,ZSPAN_M11,X0_M11,X2_M11,X1_M11
2024-01-18 17:00:00,SystemResetWarning,0822.7,4.99,000.00,018.6,017.6,000.0,027.0,020.0,15.4,0000.0,0007.45,0001.01,0000.23
2024-01-18 17:01:00,SystemResetWarning,0822.7,5.00,000.00,018.6,017.6,000.0,027.0,020.0,15.4,0000.0,0007.92,0001.10,0000.23
2024-01-18 17:02:00,SystemResetWarning,0822.6,5.00,000.00,018.6,017.6,000.0,027.0,020.0,14.9,0000.0,0008.22,0001.14,0000.24
2024-01-18 17:03:00,SystemResetWarning,0822.7,5.01,000.00,018.6,017.6,000.0,027.0,020.0,14.2,0000.0,0008.19,0001.07,0000.23
2024-01-18 17:04:00,SystemResetWarning,0822.8,5.00,000.00,018.6,017.6,000.0,027.0,020.0,14.2,0000.0,0007.80,0001.09,0000.24
2024-01-18 17:05:00,SystemResetWarning,0822.8,5.00,000.00,018.6,017.6,000.0,027.0,020.0,13.7,0000.0,0010.96,0001.79,0000.28
2024-01-18 17:06:00,SystemResetWarning,0822.9,5.00,000.00,018.6,017.6,000.0,027.0,020.0,14.0,0000.0,0012.99,0002.39,0000.33
2024-01-18 17:07:00,SystemResetWarning,0823.0,4.99,000.00,018.6,017.6,000.0,027.0,020.0,14.3,0000.0,0012.97,0002.40,0000.33
2024-01-18 17:08:00,SystemResetWarning,0823.0,4.99,000.00,018.6,017.6,000.0,027.0,020.0,14.2,0000.0,0012.91,0002.39,0000.33
2024-01-18 17:09:00,SystemResetWarning,0823.0,5.00,000.00,018.6,017.6,000.0,027.0,020.0,13.9,0000.0,0012.72,0002.31,0000.31
2024-01-18 17:10:00,SystemResetWarning,0823.3,5.00,000.00,018.6,017.6,000.0,027.0,020.0,14.1,0000.0,0012.93,0002.30,0000.31
2024-01-18 17:11:00,SystemResetWarning,0823.2,5.00,000.00,018.6,017.7,000.0,027.0,020.0,13.9,0000.0,0012.20,0002.15,0000.30
2024-01-18 17:12:00,SystemResetWarning,0823.3,5.01,000.00,018.6,017.7,000.0,027.0,020.0,13.7,0000.0,0011.61,0001.99,0000.28
2024-01-18 17:13:00,SystemResetWarning,0823.4,5.00,000.00,018.6,017.7,000.0,027.0,020.0,14.3,0000.0,0011.27,0001.95,0000.27
2024-01-18 17:14:00,SystemResetWarning,0823.5,4.98,000.00,018.6,017.7,000.0,027.0,020.0,14.3,0000.0,0011.17,0001.94,0000.27
2024-01-18 17:15:00,SystemResetWarning,0823.6,4.99,000.00,018.6,017.7,000.0,027.0,020.0,14.6,0000.0,0011.64,0002.22,0000.30
2024-01-18 17:16:00,SystemResetWarning,0823.6,5.02,000.00,018.6,017.7,000.0,027.0,020.0,14.8,0000.0,0010.04,0002.01,0000.30
2024-01-18 17:17:00,SystemResetWarning,0823.6,5.00,000.00,018.7,017.7,000.0,027.0,020.0,14.8,0000.0,0008.54,0001.51,0000.25
2024-01-18 17:18:00,SystemResetWarning,0823.6,4.99,000.00,018.7,017.7,000.0,027.0,020.0,14.5,0000.0,0009.06,0001.54,0000.25
2024-01-18 17:19:00,SystemResetWarning,0823.6,5.00,000.00,018.7,017.7,000.0,027.0,020.0,14.4,0000.0,0009.20,0001.59,0000.25
2024-01-18 17:20:00,SystemResetWarning,0823.7,5.00,000.00,018.7,017.8,000.0,027.0,020.0,14.3,0000.0,0009.21,0001.61,0000.26
2024-01-18 17:21:00,SystemResetWarning,0823.8,5.01,000.00,018.7,017.8,000.0,027.0,020.0,14.1,0000.0,0009.65,0001.63,0000.27
2024-01-18 17:22:00,SystemResetWarning,0823.9,5.00,000.00,018.7,017.8,000.0,027.0,020.0,14.2,0000.0,0010.09,0001.64,0000.27
2024-01-18 17:23:00,SystemResetWarning,0824.0,5.00,000.00,018.7,017.8,000.0,027.0,020.0,14.4,0000.0,0010.16,0001.66,0000.27
2024-01-18 17:24:00,SystemResetWarning,0824.0,5.00,000.00,018.7,017.8,000.0,027.0,020.0,14.3,0000.0,0010.19,0001.68,0000.28
2024-01-18 17:25:00,SystemResetWarning,0824.0,5.00,000.00,018.8,017.8,000.0,027.0,020.0,14.3,0000.0,0010.25,0001.70,0000.27
2024-01-18 17:26:00,SystemResetWarning,0824.2,5.00,000.00,018.8,017.9,000.0,027.0,020.0,14.1,0000.0,0009.72,0001.57,0000.25
2024-01-18 17:27:00,SystemResetWarning,0824.1,4.99,000.00,018.8,017.9,000.0,027.0,020.0,14.2,0000.0,0007.60,0000.89,0000.19
2024-01-18 17:28:00,SystemResetWarning,0824.2,5.00,000.00,018.8,017.9,000.0,027.0,020.0,14.1,0000.0,0007.29,0000.72,0000.17
2024-01-18 17:29:00,SystemResetWarning,0824.1,5.00,000.00,018.8,017.9,000.0,027.0,020.0,14.2,0000.0,0005.95,0000.63,0000.17
2024-01-18 17:30:00,SystemResetWarning,0824.2,5.01,000.00,018.8,017.9,000.0,027.0,020.0,14.2,0000.0,0005.60,0000.57,0000.16
2024-01-18 17:31:00,SystemResetWarning,0824.4,5.01,000.00,018.8,017.9,000.0,027.0,020.0,14.5,0000.0,0006.18,0000.55,0000.16
2024-01-18 17:32:00,SystemResetWarning,0824.4,5.00,000.00,018.8,017.9,000.0,027.0,020.0,14.6,0000.0,0004.96,0000.49,0000.15
2024-01-18 17:33:00,SystemResetWarning,0824.3,4.99,000.00,018.8,017.9,000.0,027.0,020.0,14.8,0000.0,0003.65,0000.49,0000.15
2024-01-18 17:34:00,SystemResetWarning,0824.4,4.99,000.00,018.8,017.9,000.0,027.0,020.0,14.0,0000.0,0003.54,0000.48,0000.15
2024-01-18 17:35:00,SystemResetWarning,0824.3,5.01,000.00,018.8,017.9,000.0,027.0,020.0,13.9,0000.0,0003.46,0000.45,0000.15
2024-01-18 17:36:00,SystemResetWarning,0824.4,5.00,000.00,018.8,017.9,000.0,027.0,020.0,14.3,0000.0,0003.29,0000.41,0000.14
2024-01-18 17:37:00,SystemResetWarning,0824.4,5.00,000.00,018.8,017.9,000.0,027.0,020.0,14.3,0000.0,0003.01,0000.35,0000.14
2024-01-18 17:38:00,SystemResetWarning,0824.4,5.00,000.00,018.8,017.9,000.0,027.0,020.0,14.1,0000.0,0002.68,0000.31,0000.13
2024-01-18 17:39:00,SystemResetWarning,0824.4,5.00,000.00,018.8,017.9,000.0,027.0,020.0,13.7,0000.0,0001.59,0000.30,0000.13
2024-01-18 17:40:00,SystemResetWarning,0824.5,5.00,000.00,018.8,017.9,000.0,027.0,020.0,14.0,0000.0,0001.59,0000.30,0000.13
2024-01-18 17:41:00,SystemResetWarning,0824.6,5.00,000.00,018.8,017.9,000.0,027.0,020.0,13.9,0000.0,0001.59,0000.30,0000.13
2024-01-18 17:42:00,SystemResetWarning,0824.5,5.00,000.00,018.8,017.9,000.0,027.0,020.0,13.9,0000.0,0000.80,0000.27,0000.13
2024-01-18 17:43:00,SystemResetWarning,0824.7,5.00,000.00,018.8,017.9,000.0,027.0,020.0,13.6,0000.0,0000.47,0000.26,0000.12
2024-01-18 17:44:00,SystemResetWarning,0824.8,5.00,000.00,018.8,017.9,000.0,027.0,020.0,14.0,0000.0,0000.46,0000.24,0000.12
2024-01-18 17:45:00,SystemResetWarning,0824.9,5.01,000.00,018.8,017.9,000.0,027.0,020.1,14.0,0000.0,0000.43,0000.23,0000.11
2024-01-18 17:46:00,SystemResetWarning,0824.9,5.00,000.00,018.8,017.9,000.0,027.1,020.1,14.2,0000.0,0000.48,0000.26,0000.11
2024-01-18 17:47:00,SystemResetWarning,0825.0,5.00,000.00,018.8,018.0,000.0,027.1,020.1,14.5,0000.0,0000.51,0000.27,0000.12
2024-01-18 17:48:00,SystemResetWarning,0825.0,5.00,000.00,018.8,018.0,000.0,027.1,020.1,14.3,0000.0,0000.52,0000.28,0000.12
2024-01-18 17:49:00,SystemResetWarning,0825.1,5.00,000.00,018.8,018.0,000.0,027.1,020.1,14.6,0000.0,0000.57,0000.29,0000.13
2024-01-18 17:50:00,SystemResetWarning,0825.0,4.99,000.00,018.8,018.1,000.0,027.1,020.2,14.4,0000.0,0000.59,0000.30,0000.12
2024-01-18 17:51:00,SystemResetWarning,0824.9,4.99,000.00,018.8,018.1,000.0,027.1,020.1,13.6,0000.0,0000.59,0000.30,0000.12
2024-01-18 17:52:00,SystemResetWarning,0825.0,5.00,000.00,018.8,018.1,000.0,027.1,020.1,13.6,0000.0,0000.57,0000.29,0000.12
2024-01-18 17:53:00,SystemResetWarning,0825.0,4.99,000.00,018.8,018.1,000.0,027.1,020.2,14.0,0000.0,0000.56,0000.28,0000.11
2024-01-18 17:54:00,SystemResetWarning,0825.1,5.00,000.00,018.8,018.1,000.0,027.1,020.2,13.4,0000.0,0000.51,0000.26,0000.11
2024-01-18 17:55:00,SystemResetWarning,0825.1,5.00,000.00,018.8,018.1,000.0,027.1,020.2,13.4,0000.0,0000.50,0000.26,0000.11
2024-01-18 17:56:00,SystemResetWarning,0825.3,5.00,000.00,018.9,018.1,000.0,027.1,020.2,14.0,0000.0,0000.50,0000.26,0000.11
2024-01-18 17:57:00,SystemResetWarning,0825.3,5.01,000.00,018.9,018.1,000.0,027.1,020.2,14.2,0000.0,0000.48,0000.23,0000.11
2024-01-18 17:58:00,SystemResetWarning,0825.4,5.01,000.00,018.9,018.2,000.0,027.1,020.2,14.6,0000.0,0000.46,0000.22,0000.11
2024-01-18 17:59:00,SystemResetWarning,0825.6,5.00,000.00,018.9,018.2,000.0,027.2,020.3,14.5,0000.0,0000.47,0000.22,0000.10
